TITAN 3C TRANSTAGE DEB, 13957

Orbit data source: Space-Track

TITAN 3C TRANSTAGE DEB, 13957 is space debris in HEO originally from a launch on Tue, 21 Dec 1965 UTC launched from the Air Force Eastern Test Range (AFETR). Debris objects in space refer to the collection of defunct objects orbiting the Earth. Examples of debris include non-operational satellites, rocket bodies, and fragments generated from explosions, collisions, or faulty payload assembly.

Loading next visibility...
Identifier
13957, 1965-108W
Orbit
HEO
Country
Flag of USUS
Related business
Manufacturer
Unknown
Mission
Spacecraft
Bus & Motor
Unknown
Mass
Unknown
Launch date (UTC)
1965-12-21 (60 years ago)
Launch vehicle
Unknown
Launch site
Air Force Eastern Test Range (AFETR)
Object type
Payload
Rocket body
Debris
Shape & HBR
Unknown shape, 0.4 m
Radar Cross Section
Medium (>0.1 m² and <1 m²)

Expand to show TLE details & history
Last TLE update: 19 hours ago

TLE from 19 hours ago
0 TITAN 3C TRANSTAGE DEB
1 13957U 65108W   26034.02351404  .00000314  00000-0  28027-2 0  9998
2 13957  26.5955 283.3478 6732991 159.0263 355.6293  2.80231059383385
Epoch: 2026-02-03T00:33Z
TLE epoch observation values (Epoch: 2026-02-03T00:33:51.613Z)
Latitude
20.4776°
Longitude
-86.23185°
Altitude
964.784 km
Speed
9.478 km/s
True Right ascension
03h 41m 46s
True Declination
20° 22' 06"
Sunlit
Object was in daylight at epoch
Visualization orbit readout
Latitude
Unknown
Longitude
Unknown
Altitude
Unknown
Speed
Unknown
Apparent Right ascension
Unknown
Apparent Declination
Unknown
Sunlit
N/A
Visualization observer readout
Local Sidereal Time
21:41:03
Azimuth
Unknown
Elevation
Unknown
Doppler factor
Unknown
Orbital elements
Apogee altitude
29,188.117 km
Perigee altitude
565.946 km
Semi-major axis
21,255.168 km
Eccentricity
0.6733
Inclination
26.5955°
RAAN
283.3478°
Arg. of periapsis
159.0263°
True anomaly
330.7783°
Mean anomaly
355.6293°
Eccentric anomaly
346.85854°
Mean motion
0.7004 °/min
Orbital period
513.99 mins
BSTAR
0.0028027
Loading maneuver chart data...
Computing Atmospheric mass density...

Documentation

Showing up to 5 results
|